User: anonymous   Login
Location: Unspecified
(0.0000°N, 0.0000°E)
Time: 18:02:44
(UTC+00:00)
Language:

USA-167 - Orbit

View from above orbital plane
View from above orbital plane
View from above satellite
View from above satellite

Ground track
Ground track

The orbit data is extracted from the following two-line orbital elements,

1 27691U 03008A   17300.43821388 0.00000000  00000-0  00000-0 0    07
2 27691   4.8471  63.7745 0007251 246.1086 113.8239  1.00270000    02
Epoch (UTC): 27 October 2017 10:31:01
Eccentricity: 0.0007251
inclination: 4.8471°
perigee height: 35756 km
apogee height: 35817 km
right ascension of ascending node: 63.7745°
argument of perigee: 246.1086°
revolutions per day: 1.00270000
mean anomaly at epoch: 113.8239°
orbit number at epoch: 0

The dashed part of the orbit path shows where the satellite is in the earth's shadow,  

DLR